Weather in Pichayevo

Russia / Tambov Oblast     51°47′25″N   41°13′06″E
temp.,
°C
wind,
m/s
gust,
m/s
humid.,
%
clouds,
%
prec.,
mm/h
press.,
hPa
HPBL,
m
7 march, sun
sun700:00−12wnw479414 0.0 1018138
03:00−13w47916 0.0 1018105
06:00−12wsw47950 0.0 1018118
09:00−9sw511900 0.0 1016296
12:00−4sw8128473 0.0 1014982
15:00−3sw9157686 0.0 10091008
18:00−3sw81770100 0.0 1006936
21:00−3wsw101886100 0.1 10041059
8 march, mon
mon800:00−2wsw101891100 0.6 1003988
03:00−4w5127996 1.3 1004295
06:00−6sw5118488 0.0 1004233
09:00−4sw589694 0.2 1004430
12:00−1wsw5990100 0.9 1004831
15:00−1w598495 1.1 1004993
18:00−5wnw478915 0.1 1005173
21:00−8wnw348832 0.1 100865
9 march, tue
tue900:00−10wnw33945 0.0 100932
03:00−12nw239224 0.0 101021
06:00−13nw3392100 0.0 101233
09:00−12nw359468 0.0 1013143
12:00−9nw359238 0.0 1014281
15:00−8nw468964 0.0 1015476
18:00−11nw239354 0.0 101622
21:00−13nnw469470 0.0 1019104
10 march, wed
wed1000:00−16nw349518 0.0 102084
03:00−18nw46969 0.0 102186
06:00−19nw34970 0.0 102375
09:00−18nnw47940 0.0 1024262
12:00−16nnw478814 0.0 1026423
15:00−15nw358714 0.0 1026418
18:00−18nw239312 0.0 102624
21:00−20n33946 0.0 102835
11 march, thu
thu1100:00−22n23890 0.0 102921
03:00−23nne22910 0.0 103120
06:00−24nne11910 0.0 103120
09:00−20se11850 0.0 103244
12:00−16ssw22780 0.0 1032251
15:00−14ssw24800 0.0 1032273
18:00−16s23840 0.0 103120
21:00−16s34800 0.0 103133